TimeCDT,TemperatureF,Dew PointF,Humidity,Sea Level PressureIn,VisibilityMPH,Wind Direction,Wind SpeedMPH,Gust SpeedMPH,PrecipitationIn,Events,Conditions,WindDirDegrees,DateUTC
12:53 AM,48.0,43.0,83,30.20,10.0,Calm,Calm,-,N/A,,Clear,0,2012-10-08 05:53:00
1:53 AM,48.0,44.1,86,30.21,10.0,Calm,Calm,-,N/A,,Mostly Cloudy,0,2012-10-08 06:53:00
2:53 AM,48.0,44.1,86,30.21,10.0,Calm,Calm,-,N/A,,Overcast,0,2012-10-08 07:53:00
3:53 AM,48.0,44.1,86,30.22,10.0,Calm,Calm,-,N/A,,Mostly Cloudy,0,2012-10-08 08:53:00
4:53 AM,48.0,42.1,80,30.23,10.0,SW,3.5,-,N/A,,Mostly Cloudy,230,2012-10-08 09:53:00
5:53 AM,46.0,39.9,79,30.24,10.0,Calm,Calm,-,N/A,,Partly Cloudy,0,2012-10-08 10:53:00
6:53 AM,43.0,41.0,93,30.24,10.0,Calm,Calm,-,N/A,,Clear,0,2012-10-08 11:53:00
7:53 AM,44.1,42.1,93,30.24,10.0,NNE,3.5,-,N/A,,Clear,20,2012-10-08 12:53:00
8:53 AM,51.1,42.1,71,30.26,10.0,Calm,Calm,-,N/A,,Clear,0,2012-10-08 13:53:00
9:53 AM,54.0,37.9,55,30.27,10.0,Calm,Calm,-,N/A,,Clear,0,2012-10-08 14:53:00
10:53 AM,57.0,36.0,45,30.25,10.0,South,5.8,-,N/A,,Clear,170,2012-10-08 15:53:00
11:53 AM,59.0,35.1,41,30.23,10.0,West,3.5,-,N/A,,Partly Cloudy,270,2012-10-08 16:53:00
12:53 PM,60.1,36.0,41,30.20,10.0,South,4.6,-,N/A,,Clear,180,2012-10-08 17:53:00
1:53 PM,60.1,35.1,39,30.17,10.0,Calm,Calm,-,N/A,,Clear,0,2012-10-08 18:53:00
2:53 PM,63.0,37.0,38,30.15,10.0,WSW,10.4,-,N/A,,Clear,240,2012-10-08 19:53:00
3:53 PM,62.1,36.0,38,30.14,10.0,South,5.8,-,N/A,,Partly Cloudy,190,2012-10-08 20:53:00
4:53 PM,62.1,36.0,38,30.12,8.0,WSW,5.8,-,N/A,,Partly Cloudy,240,2012-10-08 21:53:00
5:53 PM,60.1,37.0,42,30.12,10.0,SW,4.6,-,N/A,,Clear,220,2012-10-08 22:53:00
6:53 PM,55.9,39.0,53,30.12,10.0,Calm,Calm,-,N/A,,Clear,0,2012-10-08 23:53:00
7:53 PM,51.1,41.0,68,30.12,10.0,Calm,Calm,-,N/A,,Clear,0,2012-10-09 00:53:00
8:53 PM,48.9,41.0,74,30.13,10.0,South,3.5,-,N/A,,Clear,190,2012-10-09 01:53:00
9:53 PM,48.9,41.0,74,30.13,10.0,Calm,Calm,-,N/A,,Clear,0,2012-10-09 02:53:00
10:53 PM,44.1,41.0,89,30.13,10.0,Calm,Calm,-,N/A,,Clear,0,2012-10-09 03:53:00
11:53 PM,43.0,39.9,89,30.13,10.0,Calm,Calm,-,N/A,,Clear,0,2012-10-09 04:53:00